Terminal Aerodrome Forecast
Issued by NWS Sterling, VA

Home | Current Version | Previous Version | Text Only | Print | Product List | Glossary On
Versions: 1 2 3 4 5 6 7 8 9 10 11 12 13 14 15 16 17 18 19 20 21 22 23
008
FTUS41 KLWX 120528
TAFIAD
TAF
KIAD 120528Z 1206/1312 29005KT P6SM FEW250
     FM120900 00000KT P6SM FEW140 SCT250
     FM121500 19005KT P6SM BKN100
     FM130300 26005KT P6SM BKN035
     FM130600 29009KT P6SM BKN040
     FM130800 30013G21KT P6SM BKN040
     FM131100 31015G25KT P6SM SCT040=

USA.gov is the U.S. government's official web portal to all federal, state and local government web resources and services.